Wind_Speed
1 2 2 2 3 2 2 2 2 2 2 2 3 3 4 4 5 5 5 5 5 5 5 5 6 5 5 5 5 5 6 5 5 5 4 4 4 4 4 5 4 4 5
2 2 3 3 3 4 3 3 4 3 4 4 4 4 5 5 6 6 6 6 7 7 6 6 6 6 6 6 6 6 6 6 6 5 5 5 5 5 6 5 5 5 6
3 3 4 4 4 5 5 5 4 4 5 6 6 6 6 6 7 8 8 8 8 8 8 7 8 8 8 8 7 7 7 7 7 7 7 7 6 7 7 7 7 7 6
4 5 5 5 6 6 6 6 6 6 6 7 7 7 7 7 8 8 8 8 8 8 9 9 9 9 9 9 9 9 8 8 8 8 8 8 8 8 8 8 8 8 8
5 5 6 6 6 6 6 7 7 7 7 7 7 7 8 8 8 8 8 9 9 10 10 9 10 10 10 10 10 10 9 9 9 9 9 9 9 9 9 9 9 9 9
6 6 7 7 7 6 7 7 6 7 7 7 8 8 8 8 8 9 9 9 9 10 10 11 11 10 10 10 10 10 10 10 9 10 10 9 9 9 9 9 9 10 10
6 6 6 7 6 6 7 7 7 7 7 8 8 8 8 9 9 8 9 9 9 9 10 11 11 11 10 10 11 11 10 10 10 11 10 10 10 10 10 10 10 10 10
6 6 6 7 7 7 8 8 8 8 9 9 9 9 10 10 10 10 10 10 9 9 10 10 10 10 11 11 11 11 10 11 11 11 11 11 11 11 11 11 11 11 11
7 7 7 7 8 8 8 9 9 9 9 10 10 11 11 11 11 10 10 10 10 10 10 10 11 10 11 11 11 10 10 11 11 11 11 11 12 12 12 12 12 12 12
7 8 7 8 8 9 9 10 10 10 10 10 11 11 11 11 11 11 10 10 11 11 11 11 11 10 10 11 11 11 11 11 11 11 11 11 11 12 12 11 11 11 12
7 7 8 8 9 10 10 11 11 11 11 11 12 11 11 12 12 11 11 11 12 11 11 11 11 11 11 11 11 11 11 11 11 11 11 10 11 11 11 11 11 11 11
8 8 8 9 9 10 11 11 12 12 12 12 12 12 12 12 12 11 11 11 12 12 12 12 12 11 11 11 11 11 11 11 11 11 11 10 11 11 11 11 11 11 11
8 8 9 10 10 10 11 11 12 12 12 13 13 13 13 12 12 12 12 12 12 13 13 13 13 12 11 11 11 12 12 11 12 12 11 11 11 11 11 11 12 12 12
9 10 10 10 11 11 11 11 11 11 12 12 12 13 13 12 12 12 13 12 13 13 13 12 12 12 12 12 12 12 13 12 13 13 12 12 12 12 12 12 12 12 13
10 9 10 10 11 10 10 10 11 11 11 12 12 12 12 12 12 12 12 12 13 13 13 13 13 13 12 12 12 13 13 13 13 13 13 13 13 13 12 13 13 13 13
9 9 9 9 9 10 10 10 11 11 12 12 13 13 12 12 12 12 12 12 13 13 13 13 13 13 13 12 11 12 12 13 13 12 13 13 13 13 13 14 13 14 13
10 9 9 9 9 10 10 11 11 11 12 13 13 13 13 13 13 12 12 12 13 13 13 13 13 12 12 12 12 11 11 11 11 11 12 13 13 13 13 13 13 14 14
10 10 10 10 10 10 10 11 11 12 12 13 13 13 13 13 12 12 12 11 12 11 12 11 11 12 12 12 12 12 11 11 11 12 12 12 13 13 13 13 14 14 14
10 10 10 10 10 10 11 11 12 12 13 13 13 13 12 12 11 11 11 12 12 12 11 11 11 11 11 12 12 12 12 12 12 12 12 13 13 13 14 14 13 14 14
10 10 10 10 11 11 11 12 13 13 13 13 13 13 12 12 12 12 12 12 11 12 12 12 12 12 12 12 13 13 13 12 13 12 13 13 13 14 14 14 14 14 15
10 10 10 10 10 11 12 12 13 13 13 13 12 12 12 12 12 12 13 13 12 13 14 13 13 13 13 13 13 13 13 13 14 14 14 14 14 14 14 14 14 14 14
9 10 10 10 11 11 12 13 13 13 13 13 12 12 12 13 13 13 13 14 14 14 14 14 13 13 13 13 13 14 14 14 14 14 14 14 14 14 14 14 14 14 14
9 10 11 11 11 11 12 13 13 13 13 13 13 13 12 12 13 13 13 13 13 14 13 13 13 13 12 12 13 13 13 14 15 15 15 15 15 15 15 15 15 14 15
10 10 11 12 12 12 12 13 13 13 13 14 14 14 13 13 13 13 14 14 14 14 14 14 13 12 12 12 13 13 14 14 15 15 16 16 16 16 17 17 16 16 16
11 11 12 12 12 13 13 13 13 14 14 14 14 14 14 14 14 14 13 14 14 14 14 14 14 13 13 13 13 14 14 15 15 16 16 16 17 17 17 17 17 17 16
12 12 12 12 13 13 13 13 14 14 15 14 14 14 14 14 15 15 15 14 14 14 14 14 14 14 14 14 14 15 15 15 16 16 16 17 17 17 17 17 16 16 16
Wind_Direction
262 240 254 268 279 291 293 283 293 297 305 310 313 307 306 306 306 306 302 305 302 294 289 282 282 287 291 296 297 296 296 292 288 285 283 281 274 269 273 270 264 258 250
281 257 259 265 274 278 279 278 285 289 290 288 292 292 291 294 297 299 296 293 295 294 289 283 278 283 286 286 286 289 292 289 281 275 277 284 278 269 268 264 258 262 258
289 276 267 261 267 271 272 278 284 285 281 279 283 285 286 288 289 290 290 287 289 290 288 286 287 287 287 287 287 285 283 279 274 271 276 279 275 268 267 262 258 261 264
287 285 285 276 278 278 276 281 280 279 279 282 284 284 282 283 286 286 286 283 282 283 283 284 284 285 285 283 281 283 284 280 273 272 275 276 272 268 268 263 260 263 267
283 283 285 281 279 279 279 278 278 280 282 283 284 286 286 285 285 286 284 279 278 277 278 281 280 281 281 280 280 282 281 281 276 272 272 273 270 267 267 265 262 264 267
284 283 282 282 280 276 274 275 277 280 284 285 286 289 290 289 290 288 286 282 280 277 275 276 278 279 281 281 279 280 279 278 277 274 272 272 269 267 267 267 265 265 264
284 280 283 283 282 279 272 275 279 282 284 286 287 290 288 288 286 290 288 285 283 279 276 275 275 279 279 278 277 278 278 278 279 276 272 272 270 269 267 267 267 267 267
285 279 278 280 279 276 275 281 282 281 281 282 284 285 286 288 286 286 286 282 280 279 276 274 274 276 278 277 277 276 276 277 281 278 273 271 270 269 270 267 267 267 268
284 280 275 277 278 278 278 280 281 279 278 282 282 282 284 283 283 282 284 281 279 278 275 274 272 274 276 274 272 272 275 277 278 279 275 272 272 271 269 266 266 266 269
281 278 276 277 277 277 278 279 280 279 278 280 283 282 280 281 279 278 280 278 278 277 275 274 275 277 275 275 275 273 272 274 276 276 275 274 274 272 268 267 267 268 268
280 280 280 282 284 283 282 281 280 279 279 281 282 282 282 277 276 276 275 274 276 276 275 274 273 272 272 274 275 273 274 276 276 274 273 273 272 271 270 269 268 270 270
281 282 282 284 285 284 281 279 278 277 275 278 280 279 279 277 276 275 276 275 274 275 274 272 272 273 275 273 273 275 274 277 276 274 271 268 268 269 270 268 268 270 270
285 285 286 286 286 287 283 278 276 276 276 277 280 279 277 276 275 275 274 274 274 272 272 270 270 274 274 274 275 275 273 274 273 273 269 266 266 267 269 271 268 268 271
287 287 287 287 289 286 282 278 276 277 280 282 283 281 278 276 275 273 273 273 272 269 269 268 269 274 273 273 273 273 273 273 271 268 267 267 265 266 268 272 272 271 272
293 290 291 291 289 285 283 281 279 280 281 283 283 281 280 279 276 271 272 271 269 268 266 267 270 275 274 272 273 272 273 276 273 270 267 265 264 266 270 273 273 272 273
296 296 295 295 293 289 285 283 284 282 284 284 283 282 281 280 278 279 275 268 268 269 267 267 269 272 273 272 274 274 275 275 272 269 266 265 265 266 269 273 272 273 273
299 298 298 298 296 293 290 287 287 286 284 285 283 282 282 280 277 280 277 274 273 270 268 270 271 271 272 272 273 274 276 276 272 270 266 266 267 267 269 271 271 272 272
296 297 297 297 296 296 295 292 290 288 285 286 286 284 284 282 278 276 275 272 274 276 274 274 276 276 273 271 272 274 274 275 272 269 266 267 268 267 267 269 270 270 272
295 294 296 297 296 295 295 294 294 292 289 289 289 288 286 283 281 279 277 273 273 274 273 275 276 276 273 271 272 274 274 273 272 266 264 269 270 268 268 271 270 269 271
294 296 294 295 297 298 296 295 295 294 292 291 290 287 284 283 281 280 279 274 274 274 274 276 275 274 274 275 274 272 272 273 273 270 269 271 271 269 270 271 271 271 271
294 296 294 297 296 297 297 296 295 294 293 292 288 283 282 281 279 280 280 277 275 275 275 275 277 276 274 274 274 273 272 272 274 273 273 272 273 273 272 272 271 270 271
295 294 297 298 295 295 296 295 294 294 293 290 287 283 280 279 279 279 278 276 274 276 277 278 279 279 275 272 272 273 273 273 273 274 274 273 273 274 274 274 272 271 271
295 295 298 299 297 297 299 299 297 297 296 292 288 284 280 278 280 282 281 276 274 277 278 280 281 281 278 274 272 272 273 273 274 273 273 273 272 272 273 273 270 270 271
293 294 298 297 297 297 298 298 296 294 293 291 288 283 278 277 279 281 283 277 274 277 278 279 279 277 278 277 276 275 274 275 276 276 273 271 271 272 272 270 270 272 271
292 294 296 296 297 296 296 298 297 294 291 289 287 283 279 277 277 278 280 277 274 275 276 277 276 276 275 274 277 278 278 277 277 277 275 273 271 270 270 269 270 271 270
290 294 297 296 295 295 296 298 299 296 292 290 289 285 281 280 280 278 277 276 274 277 275 275 276 278 278 277 278 279 279 278 279 278 276 275 273 271 269 268 269 270 269
Height
5868 5868 5868 5868 5868 5869 5869 5869 5869 5868 5868 5868 5869 5869 5869 5869 5869 5869 5869 5869 5870 5870 5870 5870 5870 5871 5871 5871 5871 5871 5872 5872 5872 5872 5872 5872 5872 5872 5873 5873 5873 5873 5874
5868 5868 5868 5868 5868 5868 5868 5868 5868 5868 5868 5868 5868 5868 5868 5868 5868 5868 5868 5868 5869 5869 5869 5869 5869 5870 5870 5870 5870 5870 5870 5870 5870 5871 5871 5871 5871 5871 5872 5872 5872 5872 5872
5868 5868 5868 5867 5868 5868 5867 5867 5867 5867 5867 5867 5867 5867 5867 5867 5867 5867 5867 5867 5867 5868 5868 5868 5868 5868 5869 5869 5869 5869 5869 5869 5869 5869 5869 5870 5870 5870 5870 5870 5871 5871 5871
5867 5867 5867 5867 5867 5867 5866 5866 5866 5866 5866 5866 5866 5866 5866 5865 5866 5865 5865 5865 5866 5866 5866 5866 5867 5867 5867 5867 5867 5867 5867 5867 5867 5867 5868 5868 5868 5868 5869 5869 5869 5869 5870
5866 5866 5866 5865 5865 5865 5865 5865 5865 5865 5864 5864 5864 5864 5864 5864 5864 5864 5864 5864 5864 5864 5864 5865 5865 5865 5865 5865 5865 5865 5865 5865 5865 5866 5866 5866 5866 5866 5867 5867 5867 5867 5868
5865 5865 5864 5864 5864 5864 5864 5864 5863 5863 5863 5863 5863 5863 5862 5862 5862 5862 5862 5862 5862 5862 5862 5863 5863 5863 5863 5863 5863 5863 5863 5863 5863 5864 5864 5864 5864 5864 5865 5865 5865 5865 5866
5864 5864 5863 5863 5863 5862 5862 5862 5862 5862 5861 5861 5861 5861 5861 5861 5860 5860 5860 5860 5860 5860 5860 5860 5860 5861 5861 5861 5861 5861 5861 5861 5861 5861 5861 5862 5862 5862 5862 5862 5863 5863 5863
5863 5862 5862 5862 5861 5861 5861 5861 5860 5860 5860 5860 5859 5859 5859 5859 5858 5858 5858 5858 5858 5858 5858 5858 5858 5858 5859 5859 5859 5859 5859 5859 5859 5859 5859 5859 5859 5859 5860 5860 5860 5861 5861
5861 5861 5861 5860 5860 5860 5859 5859 5859 5858 5858 5858 5857 5857 5857 5857 5856 5856 5856 5856 5856 5856 5856 5856 5856 5856 5856 5856 5856 5856 5856 5856 5857 5857 5856 5856 5857 5857 5857 5857 5858 5858 5858
5860 5860 5859 5859 5858 5858 5858 5857 5857 5856 5856 5856 5855 5855 5855 5854 5854 5854 5854 5854 5854 5854 5854 5853 5853 5853 5854 5854 5854 5854 5854 5854 5854 5854 5854 5854 5854 5854 5854 5855 5855 5855 5855
5859 5858 5858 5857 5857 5856 5856 5855 5855 5854 5854 5853 5853 5853 5852 5852 5852 5852 5852 5852 5851 5851 5851 5851 5851 5851 5851 5851 5851 5852 5852 5852 5852 5852 5852 5852 5852 5852 5852 5852 5853 5853 5853
5857 5857 5856 5856 5855 5854 5854 5853 5853 5852 5852 5851 5851 5850 5849 5849 5849 5849 5849 5849 5849 5849 5848 5848 5848 5848 5848 5849 5849 5849 5849 5849 5849 5849 5849 5849 5849 5849 5850 5850 5850 5850 5850
5855 5855 5854 5854 5853 5852 5851 5851 5850 5850 5849 5849 5848 5847 5846 5846 5846 5846 5846 5846 5846 5846 5845 5845 5845 5845 5846 5846 5846 5846 5846 5846 5846 5847 5847 5847 5847 5847 5847 5847 5847 5847 5847
5853 5853 5852 5851 5851 5850 5849 5848 5848 5847 5847 5846 5846 5845 5844 5844 5843 5843 5843 5843 5843 5843 5843 5842 5842 5843 5843 5843 5843 5843 5843 5843 5843 5843 5844 5844 5844 5844 5844 5844 5844 5845 5844
5851 5850 5850 5849 5848 5847 5847 5846 5845 5845 5844 5844 5843 5842 5842 5841 5841 5841 5841 5840 5840 5840 5840 5840 5840 5840 5840 5840 5840 5840 5840 5840 5840 5840 5840 5841 5841 5841 5841 5841 5841 5841 5842
5849 5848 5847 5847 5846 5845 5844 5844 5843 5842 5842 5841 5840 5840 5839 5839 5838 5838 5838 5837 5837 5837 5837 5837 5837 5837 5837 5837 5837 5837 5837 5837 5837 5837 5837 5837 5838 5838 5838 5838 5838 5838 5839
5847 5846 5845 5844 5843 5843 5842 5841 5841 5840 5839 5838 5838 5837 5836 5836 5835 5835 5835 5834 5834 5834 5833 5833 5833 5834 5834 5834 5834 5834 5834 5834 5834 5834 5834 5834 5834 5835 5835 5835 5835 5835 5836
5845 5844 5843 5842 5841 5840 5839 5839 5838 5837 5837 5836 5835 5834 5834 5833 5832 5832 5832 5832 5831 5831 5830 5830 5830 5830 5830 5830 5831 5831 5831 5831 5831 5831 5831 5831 5831 5831 5832 5832 5832 5832 5833
5842 5842 5841 5839 5839 5838 5837 5836 5836 5835 5834 5833 5832 5831 5830 5830 5829 5829 5829 5828 5828 5828 5828 5827 5827 5827 5827 5827 5827 5827 5827 5827 5827 5827 5827 5828 5828 5828 5829 5829 5829 5829 5829
5840 5839 5838 5837 5836 5835 5835 5834 5833 5832 5831 5830 5829 5828 5827 5827 5826 5826 5826 5825 5825 5825 5824 5824 5824 5824 5824 5824 5824 5824 5824 5824 5824 5824 5824 5824 5825 5825 5825 5825 5825 5825 5826
5837 5837 5836 5835 5834 5833 5832 5831 5830 5829 5828 5827 5826 5825 5825 5824 5823 5823 5822 5822 5822 5822 5821 5821 5820 5820 5820 5820 5820 5820 5820 5820 5820 5820 5820 5821 5821 5821 5821 5821 5821 5822 5822
5835 5834 5833 5832 5831 5830 5829 5828 5827 5826 5825 5824 5823 5822 5821 5821 5820 5820 5819 5818 5818 5818 5818 5817 5816 5816 5816 5816 5816 5817 5817 5817 5817 5817 5817 5817 5817 5817 5817 5817 5818 5818 5818
5832 5831 5830 5829 5828 5827 5826 5825 5824 5822 5821 5821 5820 5819 5818 5818 5817 5816 5815 5815 5815 5814 5814 5813 5813 5812 5812 5812 5812 5813 5813 5813 5813 5813 5813 5813 5813 5813 5813 5813 5814 5814 5814
5829 5828 5827 5826 5825 5824 5823 5822 5821 5820 5819 5818 5816 5816 5815 5814 5813 5813 5812 5811 5811 5810 5810 5810 5809 5809 5808 5808 5808 5808 5809 5809 5809 5809 5809 5808 5809 5809 5809 5809 5809 5810 5810
5826 5825 5824 5823 5822 5821 5820 5818 5817 5816 5815 5813 5812 5812 5811 5810 5809 5809 5808 5807 5807 5806 5806 5806 5806 5805 5805 5804 5804 5804 5804 5804 5804 5804 5804 5804 5804 5804 5804 5804 5805 5805 5805
5823 5822 5821 5819 5818 5817 5816 5815 5813 5812 5810 5809 5808 5807 5806 5806 5805 5805 5804 5803 5803 5803 5802 5802 5802 5802 5801 5801 5801 5800 5800 5800 5799 5799 5799 5799 5799 5799 5799 5800 5800 5800 5800